Big Bear Station Historical Data
Daily Summary for October 23, 2017 Units:  English    Metric   Both
Next Day »
Daily Weekly Monthly Yearly Custom
  High: Low: Average:
Temperature: 74.7 °F 37.8 °F 53.2 °F
Dew Point: 33.5 °F 21.8 °F 30.1 °F
Humidity: 78% 19% 46%
Wind Speed: 5.8mph 0.0mph 1.1mph
Wind Gust: -999.0mph - -
Wind- - SSW
Pressure: 30.49 in 30.44 in -
Precipitation: 0.00 in    
Historical Graphs
 
 
Tabular Data for October 23, 2017
Time Temperature Dew Point Pressure Wind Wind Speed Wind Gust Humidity Rainfall Rate (Hourly)
00:03 43.7 °F 33.1 °F 30.45 in Calm   -999.0 mph 66% 0 in
00:18 43.3 °F 33.1 °F 30.45 in Calm   -999.0 mph 67% 0 in
00:34 43.0 °F 33.2 °F 30.45 in Calm   -999.0 mph 68% 0 in
00:49 42.8 °F 32.6 °F 30.45 in Calm   -999.0 mph 67% 0 in
01:04 42.4 °F 33.3 °F 30.45 in Calm   -999.0 mph 70% 0 in
01:19 42.1 °F 33.4 °F 30.45 in Calm   -999.0 mph 71% 0 in
01:35 41.4 °F 33.4 °F 30.45 in Calm   -999.0 mph 73% 0 in
01:50 41.2 °F 33.2 °F 30.45 in Calm   -999.0 mph 73% 0 in
02:05 40.8 °F 33.2 °F 30.45 in Calm   -999.0 mph 74% 0 in
02:20 40.6 °F 33.3 °F 30.45 in Calm   -999.0 mph 75% 0 in
02:35 40.5 °F 33.5 °F 30.45 in Calm   -999.0 mph 76% 0 in
02:51 40.1 °F 33.1 °F 30.45 in Calm   -999.0 mph 76% 0 in
03:06 39.7 °F 33.4 °F 30.45 in Calm   -999.0 mph 78% 0 in
03:21 39.4 °F 32.5 °F 30.44 in Calm   -999.0 mph 76% 0 in
03:36 39.2 °F 32.6 °F 30.44 in Calm   -999.0 mph 77% 0 in
03:51 39.2 °F 32.3 °F 30.45 in Calm   -999.0 mph 76% 0 in
04:07 38.7 °F 32.1 °F 30.44 in Calm   -999.0 mph 77% 0 in
04:22 38.8 °F 32.2 °F 30.44 in Calm   -999.0 mph 77% 0 in
04:37 38.3 °F 31.1 °F 30.44 in Calm   -999.0 mph 75% 0 in
04:52 38.1 °F 30.5 °F 30.44 in Calm   -999.0 mph 74% 0 in
05:07 37.8 °F 30.6 °F 30.44 in Calm   -999.0 mph 75% 0 in
05:23 38.3 °F 31.7 °F 30.45 in Calm   -999.0 mph 77% 0 in
05:38 38.3 °F 29.7 °F 30.45 in Calm   -999.0 mph 71% 0 in
05:53 38.1 °F 27.0 °F 30.45 in Calm   -999.0 mph 64% 0 in
06:08 38.1 °F 25.4 °F 30.45 in Calm   -999.0 mph 60% 0 in
06:24 39.2 °F 23.5 °F 30.46 in Calm   -999.0 mph 53% 0 in
06:39 39.9 °F 21.8 °F 30.46 in Calm   -999.0 mph 48% 0 in
06:54 39.2 °F 22.1 °F 30.46 in Calm   -999.0 mph 50% 0 in
07:09 39.2 °F 23.0 °F 30.46 in Calm   -999.0 mph 52% 0 in
07:24 38.7 °F 22.6 °F 30.47 in Calm   -999.0 mph 52% 0 in
07:40 38.7 °F 23.9 °F 30.47 in SSE 1.1 mph -999.0 mph 55% 0 in
07:55 38.8 °F 24.4 °F 30.47 in Calm   -999.0 mph 56% 0 in
08:10 38.8 °F 24.4 °F 30.48 in Calm   -999.0 mph 56% 0 in
08:25 39.6 °F 25.6 °F 30.48 in Calm   -999.0 mph 57% 0 in
08:40 40.5 °F 28.5 °F 30.48 in Calm   -999.0 mph 62% 0 in
08:56 43.9 °F 30.5 °F 30.48 in Calm   -999.0 mph 59% 0 in
09:11 45.1 °F 27.6 °F 30.48 in Calm   -999.0 mph 50% 0 in
09:26 51.3 °F 25.9 °F 30.48 in Calm   -999.0 mph 37% 0 in
09:41 54.7 °F 24.6 °F 30.48 in Calm   -999.0 mph 31% 0 in
09:56 59.2 °F 24.3 °F 30.48 in NE 1.7 mph -999.0 mph 26% 0 in
10:12 60.3 °F 25.3 °F 30.48 in NE 3.2 mph -999.0 mph 26% 0 in
10:27 64.4 °F 24.7 °F 30.48 in North 2.7 mph -999.0 mph 22% 0 in
10:42 65.7 °F 25.8 °F 30.48 in NNW 2.7 mph -999.0 mph 22% 0 in
10:58 67.5 °F 23.8 °F 30.48 in West 2.2 mph -999.0 mph 19% 0 in
11:13 68.5 °F 25.8 °F 30.48 in NW 3.7 mph -999.0 mph 20% 0 in
11:28 70.2 °F 27.2 °F 30.48 in WNW 3.7 mph -999.0 mph 20% 0 in
11:43 71.1 °F 29.2 °F 30.48 in NW 2.7 mph -999.0 mph 21% 0 in
11:58 72.0 °F 28.7 °F 30.47 in NNE 4.2 mph -999.0 mph 20% 0 in
12:14 72.0 °F 29.9 °F 30.47 in SSE 1.7 mph -999.0 mph 21% 0 in
12:29 72.9 °F 30.7 °F 30.47 in NW 4.2 mph -999.0 mph 21% 0 in
12:44 73.2 °F 32.1 °F 30.46 in East 3.2 mph -999.0 mph 22% 0 in
12:59 73.8 °F 32.6 °F 30.46 in SSW 5.8 mph -999.0 mph 22% 0 in
13:14 73.4 °F 31.1 °F 30.46 in WNW 2.7 mph -999.0 mph 21% 0 in
13:30 73.6 °F 32.4 °F 30.45 in Calm   -999.0 mph 22% 0 in
13:45 73.2 °F 32.1 °F 30.45 in NW 2.7 mph -999.0 mph 22% 0 in
14:00 74.7 °F 32.2 °F 30.45 in NE 1.1 mph -999.0 mph 21% 0 in
14:15 73.2 °F 32.1 °F 30.44 in WSW 3.7 mph -999.0 mph 22% 0 in
14:31 71.6 °F 30.7 °F 30.44 in ESE 2.2 mph -999.0 mph 22% 0 in
14:46 71.4 °F 31.7 °F 30.44 in ESE 1.7 mph -999.0 mph 23% 0 in
15:01 71.1 °F 31.4 °F 30.44 in ESE 1.1 mph -999.0 mph 23% 0 in
15:16 71.8 °F 32.0 °F 30.44 in NE 3.7 mph -999.0 mph 23% 0 in
15:32 70.7 °F 32.1 °F 30.44 in NW 5.3 mph -999.0 mph 24% 0 in
15:47 70.2 °F 31.7 °F 30.44 in West 2.2 mph -999.0 mph 24% 0 in
16:02 69.1 °F 32.8 °F 30.44 in NNW 2.7 mph -999.0 mph 26% 0 in
16:17 68.2 °F 32.0 °F 30.44 in NNW 2.7 mph -999.0 mph 26% 0 in
16:32 67.3 °F 32.2 °F 30.45 in South 1.7 mph -999.0 mph 27% 0 in
16:48 66.4 °F 33.2 °F 30.45 in WNW 1.1 mph -999.0 mph 29% 0 in
17:03 65.7 °F 32.6 °F 30.45 in Calm   -999.0 mph 29% 0 in
17:18 64.8 °F 33.4 °F 30.45 in SE 1.7 mph -999.0 mph 31% 0 in
17:34 63.7 °F 33.3 °F 30.45 in NW 1.7 mph -999.0 mph 32% 0 in
17:49 62.8 °F 32.5 °F 30.45 in West 2.7 mph -999.0 mph 32% 0 in
18:04 61.3 °F 31.9 °F 30.45 in Calm   -999.0 mph 33% 0 in
18:19 59.9 °F 31.5 °F 30.46 in Calm   -999.0 mph 34% 0 in
18:34 58.6 °F 31.7 °F 30.46 in Calm   -999.0 mph 36% 0 in
18:50 57.2 °F 31.2 °F 30.46 in Calm   -999.0 mph 37% 0 in
19:05 56.1 °F 30.8 °F 30.47 in Calm   -999.0 mph 38% 0 in
19:21 55.2 °F 30.7 °F 30.47 in South 1.7 mph -999.0 mph 39% 0 in
19:36 54.3 °F 30.5 °F 30.47 in Calm   -999.0 mph 40% 0 in
19:51 53.6 °F 31.1 °F 30.47 in Calm   -999.0 mph 42% 0 in
20:06 52.9 °F 31.0 °F 30.47 in Calm   -999.0 mph 43% 0 in
20:22 52.9 °F 31.0 °F 30.47 in South 2.7 mph -999.0 mph 43% 0 in
20:37 52.0 °F 30.8 °F 30.47 in Calm   -999.0 mph 44% 0 in
20:52 51.1 °F 31.6 °F 30.47 in Calm   -999.0 mph 47% 0 in
21:07 50.2 °F 31.3 °F 30.48 in Calm   -999.0 mph 48% 0 in
21:22 49.1 °F 32.7 °F 30.48 in Calm   -999.0 mph 53% 0 in
21:38 48.4 °F 32.0 °F 30.48 in Calm   -999.0 mph 53% 0 in
21:53 48.2 °F 31.4 °F 30.48 in SSE 1.7 mph -999.0 mph 52% 0 in
22:08 48.6 °F 30.3 °F 30.48 in SSE 2.7 mph -999.0 mph 49% 0 in
22:23 48.6 °F 29.8 °F 30.49 in Calm   -999.0 mph 48% 0 in
22:38 48.7 °F 29.4 °F 30.48 in South 1.7 mph -999.0 mph 47% 0 in
22:54 48.6 °F 29.8 °F 30.49 in South 1.7 mph -999.0 mph 48% 0 in
23:09 48.4 °F 29.6 °F 30.48 in Calm   -999.0 mph 48% 0 in
23:24 48.4 °F 29.6 °F 30.48 in Calm   -999.0 mph 48% 0 in
23:39 48.2 °F 29.4 °F 30.48 in South 1.7 mph -999.0 mph 48% 0 in
23:54 48.4 °F 30.1 °F 30.48 in SSE 2.7 mph -999.0 mph 49% 0 in
Big Bear CA Weather